(284593) = 2007 TG241

Discovered at Mount Lemmon on 2007-10-07 by Mt. Lemmon Survey.

Orbit

Orbit type: Main Belt

Note: WebGL enabled browser required.

epoch2023-02-25.0
epoch JD2460000.5
perihelion date2020-10-05.38879
perihelion JD2459127.88879
argument of perihelion (°)136.52588
ascending node (°)211.18732
inclination (°)7.49292
eccentricity0.1191360
perihelion distance (AU)2.3959576
Tisserand w.r.t. Jupiter3.3
ΔV w.r.t. Earth (km/sec)10.0
semimajor axis (AU)2.7200084
mean anomaly (°)191.72081
mean daily motion (°/day)0.21970930
aphelion distance (AU)3.044
period (years)4.49
P-vector [x]0.97405231
P-vector [y]-0.22632275
P-vector [z]-0.00033214
Q-vector [x]0.21601404
Q-vector [y]0.92924563
Q-vector [z]0.29973403
absolute magnitude16.71
phase slope0.15
uncertainty0
referenceMPO 745323
observations used415
oppositions14
arc length (days)7572
first opposition used2002
last opposition used2023
residual rms (arc-secs)0.64
perturbers coarse indicatorM-v
perturbers precise indicator003Ek
first observation date used2002-08-05.0
last observation date used2023-04-29.0
computer nameMPCLINUX
JD of orbit computation2456789.227414
perihelion JD uncertainty (days)6.0743E-05
argument of perihelion uncertainty (°)3.2700E-05
ascending node uncertainty (°)3.0121E-05
inclination uncertainty (°)3.3958E-06
eccentricity uncertainty 4.5573E-08
perihelion distance uncertainty (AU)1.3196E-07
Minimum Orbit Intersection Distances (in AU)
for orbit epoch: 2460000.5, reference: E2023-HO8
Mercury2.0196
Venus1.67997
Earth1.39503
Mars1.02012
Jupiter2.40132
Saturn6.24461
Uranus15.4172
Neptune27.3261

Observations

409 total observations over interval: 2002 08 05.47545 – 2023 04 29.155508
These data are available for download (format description).

Date (UT) J2000 RA J2000 Dec Magn Location Ref
2002 08 05.47545 22 02 18.04 +00 19 01.3 19.8   644 – Palomar Mountain/NEAT MPS 253018
2002 08 05.48598 22 02 17.60 +00 18 59.7 19.9   644 – Palomar Mountain/NEAT MPS 253018
2002 08 05.49628 22 02 17.21 +00 18 57.1 20.1   644 – Palomar Mountain/NEAT MPS 253018
2002 08 15.43262 21 55 05.21 -00 22 15.4 20.0   644 – Palomar Mountain/NEAT MPS 253018
2002 08 15.44305 21 55 04.73 -00 22 18.5 20.5   644 – Palomar Mountain/NEAT MPS 253018
2002 08 15.45350 21 55 04.17 -00 22 21.7 20.3   644 – Palomar Mountain/NEAT MPS 253018
2005 05 14.16528 11 16 01.68 +00 33 17.1 21.4 R G96 – Mt. Lemmon Survey MPS 253018
2005 05 14.17335 11 16 01.70 +00 33 18.2 21.0 R G96 – Mt. Lemmon Survey MPS 253018
2005 05 14.18142 11 16 01.74 +00 33 19.1 21.1 R G96 – Mt. Lemmon Survey MPS 253018
2005 05 14.18950 11 16 01.85 +00 33 20.3 20.4 R G96 – Mt. Lemmon Survey MPS 253018
2007 10 07.39771 02 52 41.77 +16 07 52.1 20.1 V G96 – Mt. Lemmon Survey MPS 223713
2007 10 07.40321 02 52 41.59 +16 07 50.1 20.1 V G96 – Mt. Lemmon Survey MPS 223713
2007 10 07.40891 02 52 41.41 +16 07 48.3 20.2 V G96 – Mt. Lemmon Survey MPS 223713
2007 10 07.41446 02 52 41.23 +16 07 46.3 20.2 V G96 – Mt. Lemmon Survey MPS 223713
2007 10 14.31007 02 48 40.07 +15 25 27.0 20.3 V 691 – Steward Observatory, Kitt Peak-Spacewatch MPS 223713
2007 10 14.32774 02 48 39.23 +15 25 20.5 20.2 V 691 – Steward Observatory, Kitt Peak-Spacewatch MPS 223713
2007 10 14.34540 02 48 38.52 +15 25 13.8 20.6 V 691 – Steward Observatory, Kitt Peak-Spacewatch MPS 223713
2007 11 05.25490 02 31 18.88 +12 46 12.9 20.1   704 – Lincoln Laboratory ETS, New Mexico MPS 254077
2007 11 05.26708 02 31 18.18 +12 46 07.3 20.3   704 – Lincoln Laboratory ETS, New Mexico MPS 254077
2007 11 05.27922 02 31 17.53 +12 46 00.7 20.3   704 – Lincoln Laboratory ETS, New Mexico MPS 254077
2007 11 05.29128 02 31 16.94 +12 45 56.0 20.4   704 – Lincoln Laboratory ETS, New Mexico MPS 254077
2007 11 05.30335 02 31 16.31 +12 45 51.0 20.3   704 – Lincoln Laboratory ETS, New Mexico MPS 254077
2007 11 07.31959 02 29 35.66 +12 30 57.8 19.1 V 703 – Catalina Sky Survey MPS 253018
2007 11 07.33383 02 29 34.90 +12 30 51.3 19.2 V 703 – Catalina Sky Survey MPS 253018
2007 11 07.34807 02 29 34.22 +12 30 45.9 19.5 V 703 – Catalina Sky Survey MPS 253018
2007 11 07.36233 02 29 33.46 +12 30 38.1 19.1 V 703 – Catalina Sky Survey MPS 253018
2007 11 14.21111 02 24 07.69 +11 42 09.8 20.1   704 – Lincoln Laboratory ETS, New Mexico MPS 254077
2007 11 14.22338 02 24 07.20 +11 42 04.6 20.5   704 – Lincoln Laboratory ETS, New Mexico MPS 254077
2007 11 14.23565 02 24 06.57 +11 41 59.9 20.2   704 – Lincoln Laboratory ETS, New Mexico MPS 254077
2007 11 17.31490 02 21 51.76 +11 21 39.5 20.2 V 703 – Catalina Sky Survey MPS 253018
2007 11 17.32400 02 21 51.37 +11 21 36.2 19.6 V 703 – Catalina Sky Survey MPS 253018
2007 11 17.33311 02 21 50.94 +11 21 33.5 20.8 V 703 – Catalina Sky Survey MPS 253018
2007 11 17.34222 02 21 50.47 +11 21 29.3 20.4 V 703 – Catalina Sky Survey MPS 253018
2010 04 12.471119 14 39 12.316 -14 41 24.87 20.83 r F51 – Pan-STARRS 1, Haleakala MPS 337395
2010 04 12.471696 14 39 12.310 -14 41 24.31 20.91 r F51 – Pan-STARRS 1, Haleakala MPS 337395
2010 04 12.479970 14 39 11.923 -14 41 21.58 20.63 r F51 – Pan-STARRS 1, Haleakala MPS 337395
2010 04 12.480549 14 39 11.900 -14 41 22.02 21.05 r F51 – Pan-STARRS 1, Haleakala MPS 337395
2010 05 10.383960 14 17 05.181 -11 45 46.08 20.38 i F51 – Pan-STARRS 1, Haleakala MPS 337395
2010 05 10.395410 14 17 04.631 -11 45 41.87 20.45 i F51 – Pan-STARRS 1, Haleakala MPS 337395
2010 05 21.24097 14 09 22.78 -10 42 58.3 21.2 V G96 – Mt. Lemmon Survey MPS 327377
2010 05 21.24745 14 09 22.53 -10 42 55.6 21.2 V G96 – Mt. Lemmon Survey MPS 327377
2010 05 21.25402 14 09 22.24 -10 42 53.7 20.6 V G96 – Mt. Lemmon Survey MPS 327377
2010 05 21.26060 14 09 21.99 -10 42 51.5 20.5 V G96 – Mt. Lemmon Survey MPS 327377
2011 08 04.39633 22 18 48.140 +01 31 20.72 19.9 i F51 – Pan-STARRS 1, Haleakala MPS 388012
2011 08 04.39929 22 18 48.030 +01 31 20.30 19.8 i F51 – Pan-STARRS 1, Haleakala MPS 388012
2011 08 04.40225 22 18 47.917 +01 31 19.85 19.9 i F51 – Pan-STARRS 1, Haleakala MPS 388012
2011 08 04.40815 22 18 47.697 +01 31 18.96 19.8 i F51 – Pan-STARRS 1, Haleakala MPS 388012
2011 08 04.41111 22 18 47.596 +01 31 18.59 20.0 i F51 – Pan-STARRS 1, Haleakala MPS 388012
2011 08 06.55910 22 17 30.382 +01 25 29.56 20.2 g F51 – Pan-STARRS 1, Haleakala MPS 388012
2011 08 06.56059 22 17 30.321 +01 25 29.24 20.3 g F51 – Pan-STARRS 1, Haleakala MPS 388012
2011 08 06.56207 22 17 30.271 +01 25 28.99 20.3 g F51 – Pan-STARRS 1, Haleakala MPS 388012
2011 08 06.56503 22 17 30.154 +01 25 28.61 20.2 g F51 – Pan-STARRS 1, Haleakala MPS 388012
2011 08 06.56651 22 17 30.090 +01 25 28.24 20.2 g F51 – Pan-STARRS 1, Haleakala MPS 388012
2011 08 06.56799 22 17 30.032 +01 25 27.96 20.3 g F51 – Pan-STARRS 1, Haleakala MPS 388012
2011 08 06.56948 22 17 29.977 +01 25 27.63 20.2 g F51 – Pan-STARRS 1, Haleakala MPS 388012
2011 08 06.57149 22 17 29.897 +01 25 27.33 19.7 r F51 – Pan-STARRS 1, Haleakala MPS 388012
2011 08 06.57299 22 17 29.840 +01 25 27.06 19.8 r F51 – Pan-STARRS 1, Haleakala MPS 388012
2011 08 06.57448 22 17 29.780 +01 25 26.83 19.8 r F51 – Pan-STARRS 1, Haleakala MPS 388012
2011 08 06.57596 22 17 29.726 +01 25 26.48 19.8 r F51 – Pan-STARRS 1, Haleakala MPS 388012
2011 08 06.57893 22 17 29.607 +01 25 26.00 19.8 r F51 – Pan-STARRS 1, Haleakala MPS 388012
2011 08 06.58042 22 17 29.546 +01 25 25.75 19.8 r F51 – Pan-STARRS 1, Haleakala MPS 388012
2011 08 06.58191 22 17 29.491 +01 25 25.48 19.7 r F51 – Pan-STARRS 1, Haleakala MPS 388012
2011 08 09.43724 22 15 40.549 +01 16 09.06 19.8 r F51 – Pan-STARRS 1, Haleakala MPS 388593
2011 08 09.43872 22 15 40.487 +01 16 08.74 19.9 r F51 – Pan-STARRS 1, Haleakala MPS 388593
2011 08 09.44021 22 15 40.429 +01 16 08.35 19.9 r F51 – Pan-STARRS 1, Haleakala MPS 388593
2011 08 09.44170 22 15 40.363 +01 16 08.17 19.8 r F51 – Pan-STARRS 1, Haleakala MPS 388593
2011 08 09.44318 22 15 40.306 +01 16 07.85 19.9 r F51 – Pan-STARRS 1, Haleakala MPS 388593
2011 08 09.44467 22 15 40.241 +01 16 07.43 19.8 r F51 – Pan-STARRS 1, Haleakala MPS 388593
2011 08 09.44616 22 15 40.179 +01 16 07.22 19.8 r F51 – Pan-STARRS 1, Haleakala MPS 388593
2011 08 09.44764 22 15 40.125 +01 16 06.85 19.9 r F51 – Pan-STARRS 1, Haleakala MPS 388593
2011 08 11.51378 22 14 16.448 +01 08 20.71 19.9 y F51 – Pan-STARRS 1, Haleakala MPS 388593
2011 08 11.51967 22 14 16.196 +01 08 19.25 20.2 y F51 – Pan-STARRS 1, Haleakala MPS 388593
2011 08 11.52261 22 14 16.060 +01 08 18.75 20.3 y F51 – Pan-STARRS 1, Haleakala MPS 388593
2011 08 11.52850 22 14 15.799 +01 08 17.09 20.0 y F51 – Pan-STARRS 1, Haleakala MPS 388593
2011 08 30.36323 22 00 08.761 -00 37 12.65 20.2 g F51 – Pan-STARRS 1, Haleakala MPS 390539
2011 08 30.37584 22 00 08.164 -00 37 17.86 19.7 r F51 – Pan-STARRS 1, Haleakala MPS 390539
2011 08 30.38692 22 00 07.633 -00 37 22.44 19.7 r F51 – Pan-STARRS 1, Haleakala MPS 390539
2011 09 05.33018 21 55 50.249 -01 19 30.37 19.7 i F51 – Pan-STARRS 1, Haleakala MPS 392496
2011 09 05.34220 21 55 49.726 -01 19 35.61 19.6 i F51 – Pan-STARRS 1, Haleakala MPS 392496
2011 10 04.11852 21 44 26.77 -04 35 29.1 18.9 H W91 – VHS-VISTA, Cerro Paranal MPS 678458
2011 10 04.11990 21 44 26.77 -04 35 29.6 18.8 H W91 – VHS-VISTA, Cerro Paranal MPS 678458
2011 10 04.13079 21 44 26.72 -04 35 33.2 19.3 J W91 – VHS-VISTA, Cerro Paranal MPS 678458
2011 10 04.13211 21 44 26.72 -04 35 33.6 18.7 J W91 – VHS-VISTA, Cerro Paranal MPS 678458
2011 10 04.13501 21 44 26.70 -04 35 34.5 19.6 Y W91 – VHS-VISTA, Cerro Paranal MPS 678458
2011 10 04.13634 21 44 26.70 -04 35 35.0 19.4 Y W91 – VHS-VISTA, Cerro Paranal MPS 678458
2013 01 17.27644 06 10 21.931 +12 57 10.65 20.5 r F51 – Pan-STARRS 1, Haleakala MPS 452151
2013 01 17.28981 06 10 21.321 +12 57 11.86 20.6 r F51 – Pan-STARRS 1, Haleakala MPS 452151
2014 02 26.53193 12 03 43.384 -07 16 54.51 21.2 w F51 – Pan-STARRS 1, Haleakala MPS 503790
2014 02 26.54430 12 03 42.903 -07 16 51.09 21.0 w F51 – Pan-STARRS 1, Haleakala MPS 503790
2014 02 28.45652 12 02 29.711 -07 07 56.83 21.2 w F51 – Pan-STARRS 1, Haleakala MPS 505222
